Flag Weather past 2 weeks in Auckland, New Zealand

Now
63 °F

Mild.


Feels Like: 63 °F
Forecast: 54 / 68 °F
Wind: 12 mph from Southwest

Location: Auckland Airport

Current Time: Nov 26, 2014 at 7:50:03 PM

Latest Report: Nov 26, 2014 at 7:00 PM


Visibility: N/A

Pressure: 29.98 "Hg

Humidity: 77%

Dew point: 55 °F

Location of AucklandLocation

Historic Weather in Auckland — Graph

°F

Auckland temperature yesterday

Maximum temperature yesterday: 72 °F (at 2:00 PM)
Minimum temperature yesterday: 63 °F (at 4:30 AM)
Average temperature yesterday: 66 °F

Past Weeks' High & Low Weather Summary

 TemperatureHumidityPressure
High72 °F (Nov 25, 2:00 PM)100% (Nov 11, 10:00 PM)30.18 "Hg (Nov 11, 10:00 PM)
Low48 °F (Nov 13, 3:00 AM)55% (Nov 13, 4:00 PM)29.42 "Hg (Nov 12, 6:00 PM)
Average60 °F80%29.86 "Hg
* Reported Nov 11 6:00 PM — Nov 26 6:30 PM, Auckland, Weather by CustomWeather, © 2014

Note: Actual official high and low records may vary slightly from our data, if they occured in-between our weather recording intervals... More about our weather records

Advertising

Auckland weather history for previous 24 hours

 ConditionsComfort  
Time TempWeatherWind HumidityBarometerVisibility
6:30 PM
Nov 26
63 °FPassing clouds.14 mph77%29.98 "HgN/A
6:00 PM64 °FMild.14 mph73%29.98 "HgN/A
5:30 PM66 °FScattered clouds.14 mph73%29.98 "HgN/A
5:00 PM66 °FPartly sunny.13 mph78%29.98 "HgN/A
4:30 PM66 °FBroken clouds.12 mph73%29.98 "HgN/A
4:00 PM64 °FMore clouds than sun.13 mph83%29.98 "HgN/A
3:30 PM64 °FMore clouds than sun.12 mph83%29.98 "HgN/A
3:00 PM64 °FMostly cloudy.13 mph83%29.98 "HgN/A
2:30 PM64 °FMostly cloudy.12 mph83%29.98 "HgN/A
2:00 PM66 °FPartly sunny.16 mph83%29.98 "HgN/A
1:30 PM63 °FDrizzle. Mostly cloudy.21 mph88%29.98 "HgN/A
1:00 PM63 °FBroken clouds.20 mph94%29.95 "HgN/A
12:30 PM66 °FMostly cloudy.16 mph94%29.95 "Hg6 mi
12:00 PM66 °FOvercast.17 mph94%29.95 "HgN/A
11:30 AM66 °FLow clouds.15 mph94%29.95 "HgN/A
11:00 AM68 °FOvercast.14 mph88%29.95 "HgN/A
10:30 AM68 °FOvercast.13 mph83%29.95 "HgN/A
10:00 AM68 °FOvercast.14 mph83%29.95 "HgN/A
9:30 AM68 °FOvercast.14 mph83%29.95 "HgN/A
9:00 AM68 °FPartly sunny.9 mph83%29.95 "HgN/A
8:30 AM68 °FBroken clouds.14 mph83%29.95 "HgN/A
8:00 AM66 °FScattered clouds.16 mph83%29.95 "HgN/A
7:30 AM64 °FPartly sunny.12 mph88%29.95 "HgN/A
7:00 AM64 °FPartly sunny.7 mph88%29.95 "HgN/A
6:30 AM63 °FOvercast.5 mph88%29.95 "HgN/A
6:00 AM63 °FOvercast.3 mph88%29.95 "HgN/A
5:30 AM63 °FPartly cloudy.3 mph94%29.95 "HgN/A
5:00 AM64 °FPassing clouds.3 mph88%29.95 "HgN/A
4:30 AM64 °FOvercast.3 mph88%29.95 "HgN/A
4:00 AM64 °FOvercast.3 mph88%29.95 "HgN/A
3:30 AM64 °FPartly cloudy.6 mph88%29.98 "HgN/A
3:00 AM64 °FOvercast.7 mph88%29.98 "HgN/A
2:30 AM64 °FPassing clouds.7 mph88%29.98 "HgN/A
2:00 AM64 °FPassing clouds.10 mph94%30.01 "HgN/A
1:30 AM64 °FPassing clouds.6 mph94%30.01 "HgN/A
1:00 AM64 °FOvercast.5 mph94%30.01 "HgN/A
12:30 AM64 °FPartly cloudy.5 mph94%30.01 "HgN/A
12:00 AM64 °FMostly cloudy.9 mph88%30.04 "HgN/A
11:30 PM
Nov 25
64 °FOvercast.9 mph94%30.04 "HgN/A
11:00 PM64 °FPassing clouds.5 mph94%30.04 "HgN/A
10:30 PM64 °FMostly cloudy.8 mph94%30.04 "HgN/A
10:00 PM64 °FMostly cloudy.9 mph94%30.01 "HgN/A
9:30 PM64 °FPassing clouds.9 mph94%30.01 "HgN/A
9:00 PM64 °FPassing clouds.8 mph94%30.01 "HgN/A
8:30 PM66 °FOvercast.8 mph88%30.01 "HgN/A
8:00 PM66 °FMostly cloudy.9 mph88%30.01 "HgN/A
7:30 PM66 °FMostly cloudy.12 mph88%29.98 "HgN/A
7:00 PM66 °FMostly cloudy.10 mph88%29.98 "HgN/A
Weather by CustomWeather, © 2014

See weather overviewHow to use our weather pages